Location: Newark
(7.0858°N, 171.3717°E)
Time: 20:26:34
(UTC+00:00)

Vanguard 2 - Pass Details

Date: 27 November 2020
Orbit: 553 x 2937 km, 32.9° (Epoch: 17 January)

Event Time Altitude Azimuth Distance (km) Brightness Sun altitude
Rises 15:07:53 0° 210° (SSW) 6,786 12.3 -47.6°
Reaches altitude 10° 15:16:33 10° 188° (S) 5,603 12.0 -45.6°
Maximum altitude 15:23:45 14° 162° (SSE) 4,956 11.9 -44.0°
Drops below altitude 10° 15:30:05 10° 136° (SE) 4,873 12.1 -42.5°
Sets 15:36:20 0° 112° (ESE) 5,358 12.7 -41.1°
